• în România
  • Lista ţărilor
  • Pe 7 zile
  • Temperatura apei
  • Hartă satelitară
  • Meteo pe hartă
  • Widget-uri
  • user-avatar
    Intrare

    Meteo pe oră la Kaprun

    Astăzi, 21 Noiembrie, Marţi

    Timp Temperatura Precipitaţii Vânt Presiune Umiditate
    00:00 -6°C° 0,3 mm 2 m/s 594 mmHg 91%
    01:00 -5°C° 0 mm 2 m/s 594 mmHg 89%
    02:00 -5°C° 0,4 mm 2 m/s 594 mmHg 90%
    03:00 -5°C° 0,4 mm 2 m/s 594 mmHg 91%
    04:00 -5°C° 0,4 mm 2 m/s 594 mmHg 92%
    05:00 -5°C° 0,4 mm 2 m/s 594 mmHg 92%
    06:00 -4°C° 0,4 mm 2 m/s 594 mmHg 93%
    07:00 -4°C° 0 mm 2 m/s 594 mmHg 93%
    08:00 -4°C° 0,3 mm 2 m/s 595 mmHg 92%
    09:00 -3°C° 0,3 mm 2 m/s 595 mmHg 92%
    10:00 -2°C° 0,3 mm 2 m/s 595 mmHg 92%
    11:00 -2°C° 0,2 mm 2 m/s 595 mmHg 93%
    12:00 -1°C° 0,2 mm 2 m/s 596 mmHg 93%
    13:00 -1°C° 0,2 mm 2 m/s 596 mmHg 94%
    14:00 -1°C° 0,5 mm 2 m/s 596 mmHg 94%
    15:00 -1°C° 0,5 mm 2 m/s 595 mmHg 95%
    16:00 -2°C° 0,5 mm 2 m/s 595 mmHg 95%
    17:00 -2°C° 0,1 mm 2 m/s 595 mmHg 94%
    18:00 -3°C° 0,1 mm 2 m/s 595 mmHg 94%
    19:00 -3°C° 0,1 mm 2 m/s 595 mmHg 93%
    20:00 -1°C° 0 mm 1 m/s 595 mmHg 91%
    21:00 -2°C° 0 mm 1 m/s 595 mmHg 89%
    22:00 -3°C° 0 mm 1 m/s 595 mmHg 88%
    23:00 -3°C° 0 mm 1 m/s 595 mmHg 86%

    Mâine, 22 Noiembrie, Miercuri

    Timp Temperatura Precipitaţii Vânt Presiune Umiditate
    00:00 -3°C° 0 mm 1 m/s 595 mmHg 85%
    01:00 -3°C° 0 mm 1 m/s 595 mmHg 84%
    02:00 -3°C° 0 mm 1 m/s 594 mmHg 83%
    03:00 -3°C° 0 mm 1 m/s 594 mmHg 82%
    04:00 -4°C° 0 mm 1 m/s 594 mmHg 81%
    05:00 -4°C° 0 mm 1 m/s 594 mmHg 80%
    06:00 -4°C° 0 mm 1 m/s 594 mmHg 80%
    07:00 -4°C° 0 mm 1 m/s 594 mmHg 79%
    08:00 -2°C° 0 mm 1 m/s 595 mmHg 80%
    09:00 -1°C° 0 mm 1 m/s 595 mmHg 81%
    10:00 +1°C° 0 mm 1 m/s 596 mmHg 82%
    11:00 +2°C° 0 mm 1 m/s 596 mmHg 85%
    12:00 +2°C° 0 mm 1 m/s 596 mmHg 88%
    13:00 +3°C° 0 mm 1 m/s 596 mmHg 91%
    14:00 +2°C° 0 mm 1 m/s 596 mmHg 90%
    15:00 +1°C° 0 mm 1 m/s 595 mmHg 88%
    16:00 0°C° 0 mm 1 m/s 594 mmHg 86%
    17:00 -1°C° 0 mm 1 m/s 594 mmHg 84%
    18:00 -4°C° 0 mm 2 m/s 594 mmHg 83%
    19:00 -5°C° 0 mm 2 m/s 594 mmHg 81%
    20:00 -5°C° 0 mm 2 m/s 594 mmHg 80%
    21:00 -5°C° 0 mm 2 m/s 594 mmHg 79%
    22:00 -6°C° 0 mm 2 m/s 594 mmHg 79%
    23:00 -6°C° 0 mm 2 m/s 594 mmHg 79%

    Poimâine, 23 Noiembrie, Joi

    Timp Temperatura Precipitaţii Vânt Presiune Umiditate
    00:00 -6°C° 0 mm 2 m/s 593 mmHg 79%
    01:00 -6°C° 0 mm 2 m/s 593 mmHg 80%
    02:00 -6°C° 0 mm 2 m/s 593 mmHg 80%
    03:00 -6°C° 0 mm 2 m/s 593 mmHg 81%
    04:00 -6°C° 0 mm 2 m/s 593 mmHg 82%
    05:00 -6°C° 0 mm 2 m/s 593 mmHg 82%
    06:00 -6°C° 0 mm 2 m/s 593 mmHg 82%
    07:00 -6°C° 0 mm 2 m/s 593 mmHg 82%
    08:00 -5°C° 0 mm 2 m/s 594 mmHg 82%
    09:00 -1°C° 0 mm 1 m/s 595 mmHg 81%
    10:00 0°C° 0 mm 1 m/s 596 mmHg 81%
    11:00 +1°C° 0 mm 1 m/s 596 mmHg 84%
    12:00 +2°C° 0 mm 1 m/s 596 mmHg 86%
    13:00 +3°C° 0 mm 1 m/s 597 mmHg 89%
    14:00 +2°C° 0 mm 1 m/s 596 mmHg 85%
    15:00 +1°C° 0 mm 1 m/s 596 mmHg 81%
    16:00 0°C° 0 mm 1 m/s 596 mmHg 77%
    17:00 -1°C° 0 mm 1 m/s 596 mmHg 75%
    18:00 -2°C° 0 mm 1 m/s 596 mmHg 73%
    19:00 -5°C° 0 mm 2 m/s 596 mmHg 70%
    20:00 -3°C° 0 mm 1 m/s 596 mmHg 70%
    21:00 -3°C° 0 mm 1 m/s 597 mmHg 70%
    22:00 -3°C° 0 mm 1 m/s 597 mmHg 70%
    23:00 -3°C° 0 mm 1 m/s 597 mmHg 70%

    24 Noiembrie, Vineri

    Timp Temperatura Precipitaţii Vânt Presiune Umiditate
    00:00 -3°C° 0 mm 1 m/s 597 mmHg 69%
    01:00 -3°C° 0 mm 1 m/s 597 mmHg 69%
    02:00 -3°C° 0 mm 1 m/s 597 mmHg 68%
    03:00 -3°C° 0 mm 1 m/s 597 mmHg 68%
    04:00 -3°C° 0 mm 1 m/s 597 mmHg 67%
    05:00 -6°C° 0 mm 2 m/s 597 mmHg 67%
    06:00 -6°C° 0 mm 2 m/s 597 mmHg 67%
    07:00 -6°C° 0 mm 2 m/s 597 mmHg 67%
    08:00 -4°C° 0 mm 2 m/s 597 mmHg 68%
    09:00 -3°C° 0 mm 2 m/s 598 mmHg 70%
    10:00 -1°C° 0 mm 2 m/s 598 mmHg 71%
    11:00 +1°C° 0 mm 2 m/s 598 mmHg 73%
    12:00 +1°C° 0 mm 2 m/s 598 mmHg 76%
    13:00 +2°C° 0 mm 2 m/s 598 mmHg 78%
    14:00 +1°C° 0 mm 2 m/s 598 mmHg 79%
    15:00 -1°C° 0 mm 2 m/s 597 mmHg 79%
    16:00 -3°C° 0 mm 2 m/s 597 mmHg 80%
    17:00 -3°C° 0 mm 2 m/s 597 mmHg 79%
    18:00 -4°C° 0 mm 2 m/s 597 mmHg 78%
    19:00 -4°C° 0 mm 2 m/s 596 mmHg 77%
    20:00 -4°C° 0 mm 2 m/s 597 mmHg 76%
    21:00 -4°C° 0 mm 2 m/s 597 mmHg 75%
    22:00 -4°C° 0 mm 2 m/s 597 mmHg 74%
    23:00 -4°C° 0 mm 2 m/s 597 mmHg 74%

    25 Noiembrie, Sâmbătă

    Timp Temperatura Precipitaţii Vânt Presiune Umiditate
    00:00 -4°C° 0 mm 2 m/s 597 mmHg 74%
    01:00 -4°C° 0 mm 2 m/s 596 mmHg 75%
    02:00 -4°C° 0 mm 2 m/s 596 mmHg 76%
    03:00 -4°C° 0 mm 2 m/s 596 mmHg 76%
    04:00 -4°C° 0 mm 2 m/s 596 mmHg 77%
    05:00 -4°C° 0 mm 2 m/s 596 mmHg 78%
    06:00 -4°C° 0 mm 2 m/s 596 mmHg 79%
    07:00 -4°C° 0 mm 2 m/s 596 mmHg 81%
    08:00 -3°C° 0 mm 2 m/s 596 mmHg 81%
    09:00 -2°C° 0 mm 2 m/s 596 mmHg 81%
    10:00 -1°C° 0 mm 2 m/s 597 mmHg 82%
    11:00 +1°C° 0 mm 2 m/s 596 mmHg 84%
    12:00 +1°C° 0 mm 2 m/s 596 mmHg 86%
    13:00 +1°C° 0 mm 3 m/s 596 mmHg 88%
    14:00 +1°C° 0 mm 2 m/s 596 mmHg 90%
    15:00 -1°C° 0 mm 2 m/s 596 mmHg 92%
    16:00 0°C° 0 mm 1 m/s 595 mmHg 93%
    17:00 0°C° 0 mm 1 m/s 596 mmHg 93%
    18:00 -1°C° 0 mm 1 m/s 596 mmHg 93%
    19:00 -1°C° 0 mm 1 m/s 597 mmHg 93%
    20:00 -1°C° 0,1 mm 1 m/s 597 mmHg 94%
    21:00 -1°C° 0,1 mm 1 m/s 597 mmHg 94%
    22:00 -1°C° 0,1 mm 1 m/s 597 mmHg 94%
    23:00 -2°C° 0,1 mm 1 m/s 598 mmHg 95%

    26 Noiembrie, Duminică

    Timp Temperatura Precipitaţii Vânt Presiune Umiditate
    00:00 -2°C° 0,1 mm 1 m/s 598 mmHg 95%
    01:00 -2°C° 0,1 mm 1 m/s 598 mmHg 96%
    02:00 -2°C° 0,1 mm 1 m/s 597 mmHg 96%
    03:00 -2°C° 0,1 mm 1 m/s 597 mmHg 97%
    04:00 -2°C° 0,1 mm 1 m/s 597 mmHg 97%
    05:00 -2°C° 0,2 mm 1 m/s 597 mmHg 97%
    06:00 -2°C° 0,2 mm 1 m/s 597 mmHg 97%
    07:00 -2°C° 0,2 mm 1 m/s 597 mmHg 97%
    08:00 -2°C° 0,8 mm 1 m/s 597 mmHg 97%
    09:00 -2°C° 0,8 mm 1 m/s 597 mmHg 96%
    10:00 -2°C° 0,8 mm 1 m/s 597 mmHg 96%
    11:00 -2°C° 1,7 mm 1 m/s 597 mmHg 96%
    12:00 -4°C° 1,7 mm 2 m/s 597 mmHg 96%
    13:00 -5°C° 1,7 mm 2 m/s 596 mmHg 96%
    14:00 -5°C° 1,2 mm 2 m/s 596 mmHg 96%
    15:00 -6°C° 1,2 mm 2 m/s 596 mmHg 95%
    16:00 -7°C° 1,2 mm 3 m/s 596 mmHg 95%
    17:00 -8°C° 0,7 mm 3 m/s 596 mmHg 95%
    18:00 -9°C° 0,7 mm 3 m/s 596 mmHg 94%
    19:00 -9°C° 0,7 mm 3 m/s 596 mmHg 94%
    20:00 -10°C° 0,2 mm 3 m/s 597 mmHg 93%
    21:00 -12°C° 0,2 mm 3 m/s 597 mmHg 93%
    22:00 -10°C° 0,2 mm 2 m/s 597 mmHg 92%
    23:00 -12°C° 0 mm 2 m/s 597 mmHg 91%
    Arată mai mult